This is the latest recevied weather packets stored in our database for station/object K9APR. If no packets are shown the sender has not sent any weather packets the latest 10 day(s).
| Time | Temp. | Humidity | Pressure | Rain* | Wind** | Luminosity | Snow |
|---|---|---|---|---|---|---|---|
| 1777749783 | 9.44° C | 49% | 1019 hPa | 0 mm | - | - | - |
| 1777749243 | 10° C | 48% | 1019 hPa | 0 mm | - | - | - |
| 1777748705 | 10.56° C | 47% | 1019.1 hPa | 0 mm | - | - | - |
| 1777748163 | 9.44° C | 52% | 1019.2 hPa | 0 mm | - | - | - |
| 1777747622 | 10° C | 49% | 1019.4 hPa | 0 mm | - | - | - |
| 1777747083 | 10° C | 48% | 1019.3 hPa | 0 mm | - | - | - |
| 1777746543 | 10.56° C | 50% | 1019.4 hPa | 0 mm | - | - | - |
| 1777746004 | 10° C | 50% | 1019.4 hPa | 0 mm | - | - | - |
| 1777745463 | 10° C | 51% | 1019.4 hPa | 0 mm | - | - | - |
| 1777744923 | 10° C | 47% | 1019.4 hPa | 0 mm | - | - | - |
| 1777744382 | 9.44° C | 49% | 1019.4 hPa | 0 mm | - | - | - |
| 1777743843 | 9.44° C | 49% | 1019.5 hPa | 0 mm | - | - | - |
| 1777743302 | 9.44° C | 46% | 1019.6 hPa | 0 mm | - | - | - |
| 1777742762 | 10° C | 53% | 1019.6 hPa | 0 mm | - | - | - |
| 1777742223 | 9.44° C | 50% | 1019.6 hPa | 0 mm | - | - | - |
| 1777741683 | 9.44° C | 46% | 1019.7 hPa | 0 mm | - | - | - |
| 1777741143 | 9.44° C | 48% | 1019.8 hPa | 0 mm | - | - | - |
| 1777740603 | 9.44° C | 50% | 1019.8 hPa | 0 mm | - | - | - |
| 1777740064 | 9.44° C | 49% | 1019.9 hPa | 0 mm | - | - | - |
| 1777739522 | 9.44° C | 47% | 1019.9 hPa | 0 mm | - | - | - |
| 1777738983 | 9.44° C | 50% | 1020 hPa | 0 mm | - | - | - |
| 1777738444 | 8.89° C | 51% | 1020.2 hPa | 0 mm | - | - | - |
| 1777737902 | 8.89° C | 50% | 1020.3 hPa | 0 mm | - | - | - |
| 1777737371 | 9.44° C | 55% | 1020.3 hPa | 0 mm | - | - | - |
| 1777736823 | 8.89° C | 50% | 1020.3 hPa | 0 mm | - | - | - |
* Rain latest hour (hover to see other rain measurements)
** Current wind speed in m/s (hover to see current wind gust speed)